Location: Saluda
(35.2377°N, 82.3468°W)
Time: 05:06:18
(UTC+00:00)

Vanguard 2 Rocket - Pass Details

Date: 05 October 2022
Orbit: 555 x 3321 km, 32.9° (Epoch: 05 December)

Event Time Altitude Azimuth Distance (km) Brightness Sun altitude
Rises 06:15:00 0° 270° (W) 6,218 - -56.8°
Reaches altitude 10° 06:19:46 10° 269° (W) 4,780 - -56.3°
Maximum altitude 06:31:56 77° 187° (S) 1,429 - -55.0°
Drops below altitude 10° 06:38:33 10° 102° (ESE) 2,719 - -54.3°
Sets 06:40:36 0° 100° (E) 3,443 - -54.0°
